Location: Melbourne
(37.8170°S, 144.9670°E)
Time: 05:02:01
(UTC+11:00)

ERBS - Visible Passes

Search period start: 28 February 2017 00:00
Search period end: 10 March 2017 00:00
Orbit: 433 x 442 km, 57.0° (Epoch: 26 February)

Date Brightness Start Highest point End Pass type
(mag) Time Alt. Az. Time Alt. Az. Time Alt. Az.
28 Feb 5.3 04:17:12 17° ESE 04:17:12 17° ESE 04:18:50 10° E visible
28 Feb 2.7 05:50:44 17° WSW 05:53:08 41° NW 05:56:27 10° NNE visible
28 Feb 2.3 20:59:02 10° NNW 21:02:29 69° NE 21:05:59 10° SE visible
28 Feb 5.6 22:37:40 10° WSW 22:39:34 14° SSW 22:41:21 10° S visible
01 Mar 4.1 05:14:05 22° NNE 05:14:05 22° NNE 05:15:29 10° NE visible
01 Mar 5.1 21:55:33 10° W 21:58:11 19° SW 22:00:49 10° SSE visible
02 Mar 4.5 21:13:45 10° WNW 21:16:49 29° SW 21:19:56 10° SSE visible
03 Mar 3.6 20:32:10 10° WNW 20:35:32 45° SW 20:38:55 10° SSE visible
04 Mar 5.6 21:30:34 10° SW 21:31:33 11° SSW 21:32:31 10° SSW visible
05 Mar 5.3 20:47:57 10° WSW 20:50:05 15° SW 20:52:13 10° S visible
